Satellite: FALCON
Catalog number: 30776
Epoch time:      09284.92286384
Element set:    0692
Inclination:      035.4328 deg
RA of node:       111.1153 deg
Eccentricity:    0.0001490
Arg of perigee:   264.2101 deg
Mean anomaly:     095.8446 deg
Mean motion:   15.03325586 rev/day
Decay rate:       3.80e-06 rev/day^2
Epoch rev:           14267
Checksum:              287

Satellite: MAST
Catalog number: 31126
Epoch time:      09284.78662288
Element set:     706
Inclination:      097.9760 deg
RA of node:       334.1711 deg
Eccentricity:    0.0093592
Arg of perigee:   278.1118 deg
Mean anomaly:     080.9476 deg
Mean motion:   14.53521384 rev/day
Decay rate:        1.7e-07 rev/day^2
Epoch rev:           13197
Checksum:              319

Satellite: CAPE1
Catalog number: 31130
Epoch time:      09284.66473203
Element set:    0718
Inclination:      097.9771 deg
RA of node:       331.9806 deg
Eccentricity:    0.0101562
Arg of perigee:   284.7794 deg
Mean anomaly:     074.2165 deg
Mean motion:   14.52091961 rev/day
Decay rate:       -6.1e-07 rev/day^2
Epoch rev:           13159
Checksum:              305

Satellite: COMPASS
Catalog number: 32787
Epoch time:      09285.20568781
Element set:     487
Inclination:      097.9271 deg
RA of node:       347.9635 deg
Eccentricity:    0.0016035
Arg of perigee:   016.7093 deg
Mean anomaly:     343.4646 deg
Mean motion:   14.81667885 rev/day
Decay rate:       1.65e-06 rev/day^2
Epoch rev:            7877
Checksum:              354

Satellite: AAUSAT2
Catalog number: 32788
Epoch time:      09285.70397222
Element set:     482
Inclination:      097.9304 deg
RA of node:       348.5367 deg
Eccentricity:    0.0016123
Arg of perigee:   016.0220 deg
Mean anomaly:     344.1500 deg
Mean motion:   14.81795549 rev/day
Decay rate:       3.06e-06 rev/day^2
Epoch rev:            7885
Checksum:              308

Satellite: DO-64
Catalog number: 32789
Epoch time:      09285.72546152
Element set:     498
Inclination:      097.9328 deg
RA of node:       348.7982 deg
Eccentricity:    0.0015951
Arg of perigee:   013.7671 deg
Mean anomaly:     346.3968 deg
Mean motion:   14.81812304 rev/day
Decay rate:       1.18e-06 rev/day^2
Epoch rev:            7885
Checksum:              360

Satellite: CO-66
Catalog number: 32791
Epoch time:      09285.19478266
Element set:     479
Inclination:      097.9318 deg
RA of node:       347.9846 deg
Eccentricity:    0.0016564
Arg of perigee:   014.1871 deg
Mean anomaly:     345.9794 deg
Mean motion:   14.81487750 rev/day
Decay rate:       -5.5e-07 rev/day^2
Epoch rev:            7873
Checksum:              376

Satellite: RS-30
Catalog number: 32953
Epoch time:      09284.81913547
Element set:     426
Inclination:      082.5052 deg
RA of node:       184.0982 deg
Eccentricity:    0.0018407
Arg of perigee:   288.2389 deg
Mean anomaly:     071.6690 deg
Mean motion:   12.43003059 rev/day
Decay rate:        1.0e-07 rev/day^2
Epoch rev:            6288
Checksum:              304

Satellite: TACSAT-3
Catalog number: 35001
Epoch time:      09284.94535051
Element set:    0121
Inclination:      040.4575 deg
RA of node:       262.2243 deg
Eccentricity:    0.0025218
Arg of perigee:   310.0168 deg
Mean anomaly:     049.8437 deg
Mean motion:   15.39300082 rev/day
Decay rate:      2.355e-05 rev/day^2
Epoch rev:           02234
Checksum:              255

Satellite: PHARMSAT
Catalog number: 35002
Epoch time:      09284.35475206
Element set:    0120
Inclination:      040.4691 deg
RA of node:       264.9235 deg
Eccentricity:    0.0028001
Arg of perigee:   309.1968 deg
Mean anomaly:     050.6361 deg
Mean motion:   15.40039193 rev/day
Decay rate:      2.016e-05 rev/day^2
Epoch rev:           02225
Checksum:              254

Satellite: HAWKSAT1
Catalog number: 35003
Epoch time:      09284.94888842
Element set:    0119
Inclination:      040.4638 deg
RA of node:       260.5028 deg
Eccentricity:    0.0028265
Arg of perigee:   317.1930 deg
Mean anomaly:     042.6719 deg
Mean motion:   15.40879269 rev/day
Decay rate:      4.242e-05 rev/day^2
Epoch rev:           02236
Checksum:              305

Satellite: CP6
Catalog number: 35004
Epoch time:      09284.94661405
Element set:    0113
Inclination:      040.4640 deg
RA of node:       260.4906 deg
Eccentricity:    0.0027762
Arg of perigee:   317.5549 deg
Mean anomaly:     042.3133 deg
Mean motion:   15.40971510 rev/day
Decay rate:      4.780e-05 rev/day^2
Epoch rev:           02235
Checksum:              272

Satellite: AEROCUB3
Catalog number: 35005
Epoch time:      09284.96457133
Element set:    0122
Inclination:      040.4760 deg
RA of node:       260.7899 deg
Eccentricity:    0.0027838
Arg of perigee:   314.4920 deg
Mean anomaly:     045.3654 deg
Mean motion:   15.40751180 rev/day
Decay rate:      4.768e-05 rev/day^2
Epoch rev:           02235
Checksum:              299

Satellite: DRAGNSAT
Catalog number: 35690
Epoch time:      09284.80378540
Element set:    0076
Inclination:      051.6416 deg
RA of node:       063.5471 deg
Eccentricity:    0.0004045
Arg of perigee:   355.4022 deg
Mean anomaly:     004.6973 deg
Mean motion:   15.83939927 rev/day
Decay rate:     3.2661e-04 rev/day^2
Epoch rev:           01160
Checksum:              295

